Regional Weather Roundup
Issued by NWS

Home | Current Version | Previous Version | Text Only | Print | Product List | Glossary On
Versions: 1 2 3 4 5 6 7 8 9 10 11 12 13 14 15 16 17 18 19 20 21 22 23 24 25 26 27 28 29 30 31 32 33 34 35 36 37 38 39 40 41 42 43 44 45 46 47 48 49 50
000
ASUS44 KOUN 230610
RWROK

WEATHER ROUNDUP FOR OKLAHOMA
NATIONAL WEATHER SERVICE NORMAN OK
100 AM CDT SAT MAY 23 2015

NOTE: "FAIR" INDICATES FEW OR NO CLOUDS BELOW 12,000 FEET WITH NO
      SIGNIFICANT WEATHER AND/OR OBSTRUCTIONS TO VISIBILITY.

OKZ001>007-009>012-014-015-017-230700-
NORTHWEST OKLAHOMA AND THE PANHANDLE

CITY           SKY/WX    TMP DP  RH WIND       PRES   REMARKS
GAGE           CLOUDY    55  55 100 SE8       30.11R FOG
6HR MIN TEMP:  55; 6HR MAX TEMP:  58;

GUYMON         CLOUDY    58  56  93 S13       30.03S
ENID/WOODRING  DRIZZLE   55  55 100 SE7       30.14S
$$

OKZ016-021>023-033>039-044-045-230700-
SOUTHWEST OKLAHOMA

CITY           SKY/WX    TMP DP  RH WIND       PRES   REMARKS
LAWTON/REGL    CLOUDY    59  57  93 E6        30.11F
6HR MIN TEMP:  57; 6HR MAX TEMP:  59; 6HR PCP: TRACE;

LAWTON/FT SILL DRIZZLE   57  57 100 E3        30.10F
FREDERICK      FOG       58  58 100 E10       30.07F VSB 3/4
CLINTON        FOG       56  55  97 SE10      30.13S VSB 3/4
HOBART         CLOUDY    57  57 100 SE7       30.11F FOG
ALTUS AFB      CLOUDY    57  57 100 E10       30.08F
$$

OKZ018>020-024>031-230700-
CENTRAL OKLAHOMA

CITY           SKY/WX    TMP DP  RH WIND       PRES   REMARKS
OKLAHOMA CITY  LGT RAIN  57  56  96 SE8       30.13F FOG
6HR MIN TEMP:  55; 6HR MAX TEMP:  57; 6HR PCP:  0.02;

OKC/WILEY POST LGT RAIN  59  56  89 SE10      30.14R FOG
OKC/TINKER AFB LGT RAIN  57  55  94 SE8       30.13S FOG
STILLWATER     CLOUDY    57  55  93 SE7       30.16S FOG
GUTHRIE        LGT RAIN  57  56  96 SE5       30.15R FOG
$$

OKZ008-013-054>072-230700-
NORTHEAST OKLAHOMA

CITY           SKY/WX    TMP DP  RH WIND       PRES   REMARKS
TULSA          CLOUDY    60  56  86 SE8       30.17S
6HR MIN TEMP:  60; 6HR MAX TEMP:  62; 6HR PCP: TRACE;

TULSA/JONES    CLOUDY    60  56  86 SE5       30.17F
PONCA CITY     CLOUDY    57  56  96 SE7       30.16S FOG
BARTLESVILLE   LGT RAIN  59  56  89 S5        30.19S
MUSKOGEE       RAIN      59  57  93 SE8       30.19S FOG
$$

OKZ032-040>043-046>053-073>077-230700-
SOUTH CENTRAL/SOUTHEAST OKLAHOMA

CITY           SKY/WX    TMP DP  RH WIND       PRES   REMARKS
ARDMORE/DWNTWN CLOUDY    59  57  94 E5        30.12F
MCALESTER      CLOUDY    61  59  93 E5        30.16S
$$



USA.gov is the U.S. government's official web portal to all federal, state and local government web resources and services.